Easton, MD

9:23 AM EST on February 07, 2016 (GMT -0500)
Easton / Newnam

Weather History for KESN - January, 2014

Change the Weather History Date:

Tuesday, January 14, 2014

  Actual Average Record
Temperature  
Mean Temperature 45 °F -  
Max Temperature 52 °F 43 °F 68 °F (2007)
Min Temperature 38 °F 27 °F 12 °F (1964)
Degree Days  
Heating Degree Days 20    
Moisture  
Dew Point 44 °F    
Average Humidity 88    
Maximum Humidity 100    
Minimum Humidity 61    
Precipitation  
Precipitation 0.00 in - - ()
Sea Level Pressure  
Sea Level Pressure 29.88 in    
Wind  
Wind Speed 8 mph (SW)    
Max Wind Speed 14 mph    
Max Gust Speed 20 mph    
Visibility 6 miles    
Events Fog , Rain    
Averages and records for this station are not official NWS values.
T = Trace of Precipitation, MM = Missing Value Source: NWS Daily Summary

Daily Weather History Graph

Daily Weather History Graph

Search for Another Location

Airport or City:

Trip Planner

Search our weather history database for the weather conditions in past years. The results will help you decide how hot, cold, wet, or windy it might be!

Date:

Astronomy

Jan. 14, 2014 Rise Set
Actual Time 7:21 AM EST 5:05 PM EST
Civil Twilight 6:52 AM EST 5:34 PM EST
Nautical Twilight 6:19 AM EST 6:07 PM EST
Astronomical Twilight 5:47 AM EST 6:39 PM EST
Moon 4:08 PM EST (1/14) 5:54 AM EST (1/14)
Length of Visible Light 10h 42m
Length of Day
9h 44m
Waxing Gibbous, 98% of the Moon is Illuminated
Jan 14
Waxing Gibbous
Jan 15
Full
Jan 24
Last Quarter
Jan 30
New
Feb 6
First Quarter

Hourly Weather History & Observations

Time (EST) Temp. Windchill Dew Point Humidity Pressure Visibility Wind Dir Wind Speed Gust Speed Precip Events Conditions
12:12 AM 52.7 °F - 39.7 °F 61% 29.95 in 10.0 mi SW 12.7 mph - N/A   Clear
12:32 AM 52.0 °F - 40.1 °F 64% 29.93 in 10.0 mi SSW 13.8 mph - N/A   Clear
12:52 AM 51.8 °F - 40.1 °F 64% 29.93 in 10.0 mi SW 12.7 mph - N/A   Clear
1:12 AM 51.8 °F - 39.9 °F 64% 29.92 in 10.0 mi SSW 10.4 mph - N/A   Clear
1:32 AM 52.0 °F - 40.1 °F 64% 29.92 in 10.0 mi SSW 11.5 mph - N/A   Clear
1:53 AM 52.2 °F - 40.3 °F 64% 29.92 in 10.0 mi SW 11.5 mph - N/A   Clear
2:13 AM 52.7 °F - 40.8 °F 64% 29.92 in 10.0 mi SW 11.5 mph - N/A   Clear
2:33 AM 52.7 °F - 41.0 °F 64% 29.92 in 10.0 mi SW 11.5 mph - N/A   Clear
2:53 AM 52.7 °F - 41.9 °F 67% 29.90 in 10.0 mi SW 12.7 mph 19.6 mph N/A   Clear
3:13 AM 52.7 °F - 42.8 °F 69% 29.89 in 10.0 mi SW 8.1 mph - N/A   Clear
3:33 AM 52.2 °F - 43.0 °F 71% 29.90 in 10.0 mi WSW 6.9 mph - N/A   Clear
3:53 AM 52.3 °F - 44.2 °F 74% 29.89 in 10.0 mi WSW 4.6 mph - N/A Rain Light Rain
4:13 AM 50.9 °F - 46.0 °F 83% 29.87 in 10.0 mi SSW 6.9 mph - N/A   Light Drizzle
4:33 AM 50.9 °F - 46.4 °F 85% 29.86 in 10.0 mi SSW 5.8 mph - N/A   Scattered Clouds
4:53 AM 50.9 °F - 46.0 °F 83% 29.86 in 10.0 mi SW 6.9 mph - N/A   Clear
5:13 AM 50.7 °F - 46.4 °F 85% 29.86 in 10.0 mi SSW 5.8 mph - N/A   Light Drizzle
5:22 AM 50.5 °F - 46.4 °F 86% 29.87 in 10.0 mi SSW 6.9 mph - N/A   Drizzle
5:45 AM 48.2 °F - 46.4 °F 93% 29.87 in 6.0 mi SSW 5.8 mph - N/A Rain Light Rain
6:50 AM 48.2 °F - 48.2 °F 100% 29.87 in 7.0 mi South 5.8 mph - N/A Rain Rain
7:50 AM 48.2 °F - 48.2 °F 100% 29.84 in 7.0 mi South 5.8 mph - N/A Rain Light Rain
9:50 AM 50.0 °F - 50.0 °F 100% 29.84 in 7.0 mi SSW 5.8 mph - N/A   Overcast
10:17 AM 50.0 °F - 50.0 °F 100% 29.82 in 6.0 mi SSW 6.9 mph - N/A   Overcast
10:50 AM 50.0 °F - 50.0 °F 100% 29.82 in 2.5 mi SSW 6.9 mph - N/A   Overcast
11:50 AM 50.0 °F - 50.0 °F 100% 29.77 in 4.0 mi SSW 6.9 mph - N/A   Overcast
12:45 PM 50.0 °F - 50.0 °F 100% 29.75 in 5.0 mi West 4.6 mph - N/A Rain Rain
1:50 PM 50.0 °F - 50.0 °F 100% 29.76 in 5.0 mi West 6.9 mph - N/A Rain Light Rain
2:14 PM 48.2 °F - 48.2 °F 100% 29.78 in 2.0 mi WNW 9.2 mph - N/A Rain Light Rain
2:53 PM 48.2 °F - 48.2 °F 100% 29.78 in 6.0 mi WNW 6.9 mph - N/A Rain Light Rain
3:45 PM 48.2 °F - 48.2 °F 100% 29.80 in 6.0 mi NNW 6.9 mph - N/A Rain Rain
4:01 PM 48.2 °F - 48.2 °F 100% 29.78 in 6.0 mi North 3.5 mph - N/A   Overcast
4:53 PM 48.2 °F - 48.2 °F 100% 29.81 in 7.0 mi West 3.5 mph - N/A   Light Drizzle
5:53 PM 48.2 °F - 48.2 °F 100% 29.86 in 4.0 mi West 4.6 mph - N/A   Overcast
6:53 PM 46.4 °F 45.2 °F 46.4 °F 100% 29.92 in 6.0 mi West 3.5 mph - N/A   Overcast
7:53 PM 44.6 °F - 44.6 °F 100% 29.92 in 4.0 mi Calm Calm - N/A   Scattered Clouds
8:53 PM 44.6 °F - 44.6 °F 100% 29.93 in 2.0 mi Calm Calm - N/A   Clear
9:35 PM 41.5 °F - 41.5 °F 100% 29.93 in 0.2 mi Calm Calm - N/A Fog Fog
9:55 PM 39.9 °F - 39.9 °F 100% 29.93 in 0.2 mi Calm Calm - N/A Fog Fog
10:15 PM 38.8 °F 36.5 °F 38.8 °F 100% 29.95 in 0.2 mi WSW 3.5 mph - N/A Fog Fog
10:35 PM 39.6 °F 36.3 °F 39.6 °F 100% 29.95 in 0.2 mi West 4.6 mph - N/A Fog Fog
10:55 PM 40.6 °F 38.6 °F 40.6 °F 100% 29.95 in 0.2 mi WSW 3.5 mph - N/A Fog Fog
11:15 PM 39.2 °F - 39.2 °F 100% 29.95 in 0.5 mi Calm Calm - N/A Fog Fog
11:35 PM 39.4 °F - 39.4 °F 100% 29.96 in 0.2 mi Calm Calm - N/A Fog Fog
11:55 PM 38.8 °F 35.4 °F 38.8 °F 100% 29.96 in 0.2 mi SW 4.6 mph - N/A Fog Fog